Time,TemperatureF,DewpointF,PressureIn,WindDirection,WindDirectionDegrees,WindSpeedMPH,WindSpeedGustMPH,Humidity,HourlyPrecipIn,Conditions,Clouds,dailyrainin,SoftwareType,DateUTC
2013-07-23 00:00:00,78.5,61.5,29.72,North,355,1.0,2.0,56,0.00,,,0.00,Wunderground v.1.15,2013-07-23 07:00:00,
2013-07-23 00:05:00,77.7,61.3,29.72,North,356,1.0,2.0,57,0.00,,,0.00,Wunderground v.1.15,2013-07-23 07:05:00,
2013-07-23 00:15:00,77.6,60.7,29.72,West,266,1.0,1.0,56,0.00,,,0.00,Wunderground v.1.15,2013-07-23 07:15:00,
2013-07-23 00:20:00,77.5,60.6,29.72,WSW,243,1.0,1.0,56,0.00,,,0.00,Wunderground v.1.15,2013-07-23 07:20:00,
2013-07-23 00:25:00,77.7,61.3,29.71,WNW,301,1.0,6.0,57,0.00,,,0.00,Wunderground v.1.15,2013-07-23 07:25:00,
2013-07-23 00:30:00,77.7,61.7,29.71,WNW,301,4.0,5.0,58,0.00,,,0.00,Wunderground v.1.15,2013-07-23 07:30:00,
2013-07-23 00:35:00,77.9,61.4,29.71,NW,310,4.0,5.0,57,0.00,,,0.00,Wunderground v.1.15,2013-07-23 07:35:00,
2013-07-23 00:40:00,78.1,61.1,29.72,NW,321,3.0,3.0,56,0.00,,,0.00,Wunderground v.1.15,2013-07-23 07:40:00,
2013-07-23 00:50:00,78.3,60.8,29.72,NW,311,3.0,3.0,55,0.00,,,0.00,Wunderground v.1.15,2013-07-23 07:50:00,
2013-07-23 00:55:00,78.4,60.9,29.72,West,260,3.0,3.0,55,0.00,,,0.00,Wunderground v.1.15,2013-07-23 07:55:00,
2013-07-23 01:00:00,78.3,62.3,29.72,WSW,248,2.0,2.0,58,0.00,,,0.00,Wunderground v.1.15,2013-07-23 08:00:00,
2013-07-23 01:05:00,78.1,62.1,29.72,WSW,254,2.0,2.0,58,0.00,,,0.00,Wunderground v.1.15,2013-07-23 08:05:00,
2013-07-23 01:15:00,77.9,63.8,29.72,WSW,253,2.0,2.0,62,0.00,,,0.00,Wunderground v.1.15,2013-07-23 08:15:00,
2013-07-23 01:20:00,77.5,63.5,29.72,West,273,1.0,1.0,62,0.00,,,0.00,Wunderground v.1.15,2013-07-23 08:20:00,
2013-07-23 01:25:00,77.2,63.2,29.72,West,271,0.0,1.0,62,0.00,,,0.00,Wunderground v.1.15,2013-07-23 08:25:00,
2013-07-23 01:30:00,77.1,63.5,29.72,West,271,0.0,0.0,63,0.00,,,0.00,Wunderground v.1.15,2013-07-23 08:30:00,
2013-07-23 01:35:00,77.1,64.0,29.72,West,266,0.0,2.0,64,0.00,,,0.00,Wunderground v.1.15,2013-07-23 08:35:00,
2013-07-23 01:45:00,77.0,64.3,29.72,SW,231,1.0,1.0,65,0.00,,,0.00,Wunderground v.1.15,2013-07-23 08:45:00,
2013-07-23 01:50:00,76.8,64.1,29.71,WSW,256,1.0,1.0,65,0.00,,,0.00,Wunderground v.1.15,2013-07-23 08:50:00,
2013-07-23 01:55:00,76.6,64.4,29.71,West,269,1.0,2.0,66,0.00,,,0.00,Wunderground v.1.15,2013-07-23 08:55:00,
2013-07-23 02:00:00,76.6,64.4,29.71,WNW,282,2.0,3.0,66,0.00,,,0.00,Wunderground v.1.15,2013-07-23 09:00:00,
2013-07-23 02:05:00,76.7,64.5,29.71,WNW,293,3.0,3.0,66,0.00,,,0.00,Wunderground v.1.15,2013-07-23 09:05:00,
2013-07-23 02:10:00,76.6,64.4,29.70,West,281,3.0,3.0,66,0.00,,,0.00,Wunderground v.1.15,2013-07-23 09:10:00,
2013-07-23 02:20:00,76.3,64.5,29.71,WNW,294,3.0,3.0,67,0.00,,,0.00,Wunderground v.1.15,2013-07-23 09:20:00,
2013-07-23 02:25:00,76.0,64.7,29.71,WNW,295,3.0,3.0,68,0.00,,,0.00,Wunderground v.1.15,2013-07-23 09:25:00,
2013-07-23 02:30:00,76.1,64.3,29.71,WNW,296,3.0,3.0,67,0.00,,,0.00,Wunderground v.1.15,2013-07-23 09:30:00,
2013-07-23 02:35:00,75.7,64.4,29.70,NE,34,2.0,3.0,68,0.00,,,0.00,Wunderground v.1.15,2013-07-23 09:35:00,
2013-07-23 02:45:00,75.5,64.2,29.71,NNE,24,1.0,1.0,68,0.00,,,0.00,Wunderground v.1.15,2013-07-23 09:45:00,
2013-07-23 02:50:00,75.1,64.2,29.70,ENE,57,1.0,1.0,69,0.00,,,0.00,Wunderground v.1.15,2013-07-23 09:50:00,
2013-07-23 02:55:00,74.8,64.4,29.70,ENE,57,1.0,1.0,70,0.00,,,0.00,Wunderground v.1.15,2013-07-23 09:55:00,
2013-07-23 03:00:00,74.6,64.6,29.70,ENE,57,0.0,0.0,71,0.00,,,0.00,Wunderground v.1.15,2013-07-23 10:00:00,
2013-07-23 03:10:00,74.4,64.0,29.71,ENE,57,1.0,1.0,70,0.00,,,0.00,Wunderground v.1.15,2013-07-23 10:10:00,
2013-07-23 03:15:00,74.3,63.9,29.71,NE,56,0.0,1.0,70,0.00,,,0.00,Wunderground v.1.15,2013-07-23 10:15:00,
2013-07-23 03:20:00,74.3,63.9,29.71,NNE,29,0.0,3.0,70,0.00,,,0.00,Wunderground v.1.15,2013-07-23 10:20:00,
2013-07-23 03:30:00,74.5,64.1,29.71,NE,37,2.0,2.0,70,0.00,,,0.00,Wunderground v.1.15,2013-07-23 10:30:00,
2013-07-23 03:35:00,74.5,64.1,29.71,NE,37,1.0,2.0,70,0.00,,,0.00,Wunderground v.1.15,2013-07-23 10:35:00,
2013-07-23 03:40:00,74.2,63.8,29.71,NE,37,0.0,0.0,70,0.00,,,0.00,Wunderground v.1.15,2013-07-23 10:40:00,
2013-07-23 03:45:00,74.1,64.1,29.71,NNW,346,0.0,0.0,71,0.00,,,0.00,Wunderground v.1.15,2013-07-23 10:45:00,
2013-07-23 03:50:00,74.3,64.3,29.71,NNW,346,0.0,0.0,71,0.00,,,0.00,Wunderground v.1.15,2013-07-23 10:50:00,
2013-07-23 04:00:00,74.5,64.5,29.71,NNW,346,0.0,0.0,71,0.00,,,0.00,Wunderground v.1.15,2013-07-23 11:00:00,
2013-07-23 04:05:00,74.4,64.8,29.71,NNW,339,0.0,0.0,72,0.00,,,0.00,Wunderground v.1.15,2013-07-23 11:05:00,
2013-07-23 04:10:00,73.9,64.3,29.70,NNW,338,0.0,1.0,72,0.00,,,0.00,Wunderground v.1.15,2013-07-23 11:10:00,
2013-07-23 04:15:00,73.7,64.1,29.70,NW,304,1.0,1.0,72,0.00,,,0.00,Wunderground v.1.15,2013-07-23 11:15:00,
2013-07-23 04:25:00,73.8,64.2,29.71,WNW,303,0.0,1.0,72,0.00,,,0.00,Wunderground v.1.15,2013-07-23 11:25:00,
2013-07-23 04:30:00,73.9,64.3,29.71,NW,307,0.0,0.0,72,0.00,,,0.00,Wunderground v.1.15,2013-07-23 11:30:00,
2013-07-23 04:35:00,73.9,64.3,29.71,NW,316,0.0,0.0,72,0.00,,,0.00,Wunderground v.1.15,2013-07-23 11:35:00,
2013-07-23 04:40:00,73.7,64.1,29.71,NW,316,0.0,0.0,72,0.00,,,0.00,Wunderground v.1.15,2013-07-23 11:40:00,
2013-07-23 04:45:00,73.6,64.4,29.71,North,354,0.0,0.0,73,0.00,,,0.00,Wunderground v.1.15,2013-07-23 11:45:00,
2013-07-23 04:55:00,73.7,64.5,29.71,NNW,348,0.0,0.0,73,0.00,,,0.00,Wunderground v.1.15,2013-07-23 11:55:00,
2013-07-23 05:00:00,73.7,64.5,29.72,NNW,345,0.0,0.0,73,0.00,,,0.00,Wunderground v.1.15,2013-07-23 12:00:00,
2013-07-23 05:05:00,73.7,64.5,29.71,NNW,343,1.0,2.0,73,0.00,,,0.00,Wunderground v.1.15,2013-07-23 12:05:00,
2013-07-23 05:10:00,73.8,64.2,29.71,North,354,2.0,2.0,72,0.00,,,0.00,Wunderground v.1.15,2013-07-23 12:10:00,
2013-07-23 05:20:00,74.2,64.2,29.72,NW,323,2.0,2.0,71,0.00,,,0.00,Wunderground v.1.15,2013-07-23 12:20:00,
2013-07-23 05:25:00,74.4,64.0,29.72,NW,307,2.0,2.0,70,0.00,,,0.00,Wunderground v.1.15,2013-07-23 12:25:00,
2013-07-23 05:30:00,74.6,64.2,29.72,NNW,334,2.0,2.0,70,0.00,,,0.00,Wunderground v.1.15,2013-07-23 12:30:00,
2013-07-23 05:35:00,74.5,64.1,29.72,NW,323,2.0,2.0,70,0.00,,,0.00,Wunderground v.1.15,2013-07-23 12:35:00,
2013-07-23 05:45:00,74.4,64.0,29.72,NW,323,1.0,2.0,70,0.00,,,0.00,Wunderground v.1.15,2013-07-23 12:45:00,
2013-07-23 05:50:00,74.5,64.1,29.72,NW,323,1.0,1.0,70,0.00,,,0.00,Wunderground v.1.15,2013-07-23 12:50:00,
2013-07-23 05:55:00,74.6,64.6,29.72,NW,323,0.0,1.0,71,0.00,,,0.00,Wunderground v.1.15,2013-07-23 12:55:00,
2013-07-23 06:00:00,74.7,64.7,29.73,NW,326,0.0,1.0,71,0.00,,,0.00,Wunderground v.1.15,2013-07-23 13:00:00,
2013-07-23 06:10:00,75.0,64.5,29.73,North,349,2.0,3.0,70,0.00,,,0.00,Wunderground v.1.15,2013-07-23 13:10:00,
2013-07-23 06:15:00,75.3,64.0,29.73,North,353,3.0,3.0,68,0.00,,,0.00,Wunderground v.1.15,2013-07-23 13:15:00,
2013-07-23 06:20:00,75.5,64.6,29.73,NNE,26,2.0,2.0,69,0.00,,,0.00,Wunderground v.1.15,2013-07-23 13:20:00,
2013-07-23 06:25:00,75.9,65.4,29.73,NNE,27,1.0,2.0,70,0.00,,,0.00,Wunderground v.1.15,2013-07-23 13:25:00,
2013-07-23 06:30:00,76.8,65.4,29.73,NNE,27,0.0,0.0,68,0.00,,,0.00,Wunderground v.1.15,2013-07-23 13:30:00,
2013-07-23 06:40:00,77.3,65.1,29.73,NE,51,1.0,1.0,66,0.00,,,0.00,Wunderground v.1.15,2013-07-23 13:40:00,
2013-07-23 06:45:00,77.3,66.3,29.74,NE,51,1.0,1.0,69,0.00,,,0.00,Wunderground v.1.15,2013-07-23 13:45:00,
2013-07-23 06:50:00,77.6,65.8,29.74,NE,51,0.0,0.0,67,0.00,,,0.00,Wunderground v.1.15,2013-07-23 13:50:00,
2013-07-23 06:55:00,77.9,66.5,29.74,ENE,78,0.0,0.0,68,0.00,,,0.00,Wunderground v.1.15,2013-07-23 13:55:00,
2013-07-23 07:00:00,78.4,65.7,29.74,East,81,0.0,1.0,65,0.00,,,0.00,Wunderground v.1.15,2013-07-23 14:00:00,
2013-07-23 07:10:00,79.3,64.2,29.74,East,81,1.0,1.0,60,0.00,,,0.00,Wunderground v.1.15,2013-07-23 14:10:00,
2013-07-23 07:15:00,79.8,64.2,29.74,East,81,0.0,1.0,59,0.00,,,0.00,Wunderground v.1.15,2013-07-23 14:15:00,
2013-07-23 07:20:00,81.2,65.0,29.74,East,80,0.0,0.0,58,0.00,,,0.00,Wunderground v.1.15,2013-07-23 14:20:00,
2013-07-23 07:25:00,81.2,64.5,29.75,East,82,0.0,0.0,57,0.00,,,0.00,Wunderground v.1.15,2013-07-23 14:25:00,
2013-07-23 07:35:00,81.9,65.2,29.75,ESE,118,0.0,0.0,57,0.00,,,0.00,Wunderground v.1.15,2013-07-23 14:35:00,
2013-07-23 07:40:00,81.7,65.0,29.75,ESE,109,1.0,1.0,57,0.00,,,0.00,Wunderground v.1.15,2013-07-23 14:40:00,
2013-07-23 07:45:00,81.8,65.1,29.75,SE,144,2.0,2.0,57,0.00,,,0.00,Wunderground v.1.15,2013-07-23 14:45:00,
2013-07-23 07:50:00,81.4,64.7,29.75,ENE,70,2.0,2.0,57,0.00,,,0.00,Wunderground v.1.15,2013-07-23 14:50:00,
2013-07-23 08:00:00,82.6,65.3,29.75,ESE,122,1.0,2.0,56,0.00,,,0.00,Wunderground v.1.15,2013-07-23 15:00:00,
2013-07-23 08:05:00,83.0,64.6,29.75,ENE,76,1.0,2.0,54,0.00,,,0.00,Wunderground v.1.15,2013-07-23 15:05:00,
2013-07-23 08:10:00,82.6,65.3,29.75,SE,129,2.0,3.0,56,0.00,,,0.00,Wunderground v.1.15,2013-07-23 15:10:00,
2013-07-23 08:15:00,83.2,64.8,29.75,WSW,242,2.0,3.0,54,0.00,,,0.00,Wunderground v.1.15,2013-07-23 15:15:00,
2013-07-23 08:25:00,84.7,64.6,29.75,NNE,15,1.0,4.0,51,0.00,,,0.00,Wunderground v.1.15,2013-07-23 15:25:00,
2013-07-23 08:30:00,83.8,64.8,29.74,ESE,113,2.0,3.0,53,0.00,,,0.00,Wunderground v.1.15,2013-07-23 15:30:00,
2013-07-23 08:35:00,83.2,64.8,29.75,North,355,3.0,3.0,54,0.00,,,0.00,Wunderground v.1.15,2013-07-23 15:35:00,
2013-07-23 08:40:00,83.5,64.6,29.74,ENE,74,3.0,5.0,53,0.00,,,0.00,Wunderground v.1.15,2013-07-23 15:40:00,
2013-07-23 08:50:00,83.9,64.4,29.75,SSW,198,3.0,3.0,52,0.00,,,0.00,Wunderground v.1.15,2013-07-23 15:50:00,
2013-07-23 08:55:00,84.6,64.5,29.74,ESE,116,2.0,3.0,51,0.00,,,0.00,Wunderground v.1.15,2013-07-23 15:55:00,
2013-07-23 09:00:00,84.8,64.7,29.74,ESE,121,2.0,2.0,51,0.00,,,0.00,Wunderground v.1.15,2013-07-23 16:00:00,
2013-07-23 09:05:00,84.8,64.1,29.74,ENE,74,3.0,4.0,50,0.00,,,0.00,Wunderground v.1.15,2013-07-23 16:05:00,
2013-07-23 09:10:00,84.7,63.4,29.74,SSE,155,3.0,6.0,49,0.00,,,0.00,Wunderground v.1.15,2013-07-23 16:10:00,
2013-07-23 09:20:00,85.5,63.0,29.74,SSE,155,5.0,5.0,47,0.00,,,0.00,Wunderground v.1.15,2013-07-23 16:20:00,
2013-07-23 09:25:00,85.6,63.1,29.74,South,185,4.0,7.0,47,0.00,,,0.00,Wunderground v.1.15,2013-07-23 16:25:00,
2013-07-23 09:30:00,85.9,62.7,29.74,West,261,3.0,4.0,46,0.00,,,0.00,Wunderground v.1.15,2013-07-23 16:30:00,
2013-07-23 09:40:00,86.3,62.5,29.74,SE,146,4.0,4.0,45,0.00,,,0.00,Wunderground v.1.15,2013-07-23 16:40:00,
2013-07-23 09:45:00,86.2,62.4,29.74,SSE,162,5.0,5.0,45,0.00,,,0.00,Wunderground v.1.15,2013-07-23 16:45:00,
2013-07-23 09:50:00,86.0,62.2,29.74,WSW,255,5.0,5.0,45,0.00,,,0.00,Wunderground v.1.15,2013-07-23 16:50:00,
2013-07-23 09:55:00,85.9,62.7,29.74,SSW,212,5.0,5.0,46,0.00,,,0.00,Wunderground v.1.15,2013-07-23 16:55:00,
2013-07-23 10:00:00,86.6,62.1,29.74,South,172,5.0,5.0,44,0.00,,,0.00,Wunderground v.1.15,2013-07-23 17:00:00,
2013-07-23 10:10:00,86.9,62.4,29.74,SW,231,5.0,6.0,44,0.00,,,0.00,Wunderground v.1.15,2013-07-23 17:10:00,
2013-07-23 10:15:00,86.1,62.3,29.74,WNW,282,6.0,6.0,45,0.00,,,0.00,Wunderground v.1.15,2013-07-23 17:15:00,
2013-07-23 10:20:00,85.7,61.9,29.74,West,266,7.0,9.0,45,0.00,,,0.00,Wunderground v.1.15,2013-07-23 17:20:00,
2013-07-23 10:30:00,86.2,63.0,29.74,SSW,211,6.0,6.0,46,0.00,,,0.00,Wunderground v.1.15,2013-07-23 17:30:00,
2013-07-23 10:35:00,86.0,62.2,29.73,SSW,211,7.0,8.0,45,0.00,,,0.00,Wunderground v.1.15,2013-07-23 17:35:00,
2013-07-23 10:40:00,86.2,62.4,29.73,SW,226,8.0,8.0,45,0.00,,,0.00,Wunderground v.1.15,2013-07-23 17:40:00,
2013-07-23 10:45:00,86.6,62.1,29.73,SW,233,7.0,8.0,44,0.00,,,0.00,Wunderground v.1.15,2013-07-23 17:45:00,
2013-07-23 10:50:00,86.3,61.8,29.73,WSW,245,7.0,7.0,44,0.00,,,0.00,Wunderground v.1.15,2013-07-23 17:50:00,
2013-07-23 11:00:00,86.9,62.4,29.72,SE,146,5.0,5.0,44,0.00,,,0.00,Wunderground v.1.15,2013-07-23 18:00:00,
2013-07-23 11:05:00,88.2,62.9,29.72,SSW,198,4.0,8.0,43,0.00,,,0.00,Wunderground v.1.15,2013-07-23 18:05:00,
2013-07-23 11:15:00,87.5,62.9,29.72,WSW,244,7.0,8.0,44,0.00,,,0.00,Wunderground v.1.15,2013-07-23 18:15:00,
2013-07-23 11:25:00,88.3,62.3,29.72,WSW,253,5.0,7.0,42,0.00,,,0.00,Wunderground v.1.15,2013-07-23 18:25:00,
2013-07-23 11:30:00,88.4,62.4,29.71,NW,312,6.0,10.0,42,0.00,,,0.00,Wunderground v.1.15,2013-07-23 18:30:00,
2013-07-23 11:35:00,88.4,62.4,29.71,WSW,256,7.0,10.0,42,0.00,,,0.00,Wunderground v.1.15,2013-07-23 18:35:00,
2013-07-23 11:45:00,88.3,62.3,29.71,SW,221,7.0,7.0,42,0.00,,,0.00,Wunderground v.1.15,2013-07-23 18:45:00,
2013-07-23 11:55:00,87.8,61.9,29.71,WSW,250,9.0,13.0,42,0.00,,,0.00,Wunderground v.1.15,2013-07-23 18:55:00,
2013-07-23 12:00:00,87.8,61.9,29.70,SE,126,6.0,6.0,42,0.00,,,0.00,Wunderground v.1.15,2013-07-23 19:00:00,
2013-07-23 12:05:00,88.1,62.1,29.70,WSW,248,6.0,10.0,42,0.00,,,0.00,Wunderground v.1.15,2013-07-23 19:05:00,
2013-07-23 12:10:00,88.6,61.9,29.70,SSE,159,7.0,9.0,41,0.00,,,0.00,Wunderground v.1.15,2013-07-23 19:10:00,
2013-07-23 12:20:00,88.9,62.2,29.70,WSW,258,9.0,9.0,41,0.00,,,0.00,Wunderground v.1.15,2013-07-23 19:20:00,
2013-07-23 12:30:00,89.5,62.0,29.69,WSW,242,6.0,9.0,40,0.00,,,0.00,Wunderground v.1.15,2013-07-23 19:30:00,
2013-07-23 12:35:00,88.7,62.0,29.69,SW,225,7.0,9.0,41,0.00,,,0.00,Wunderground v.1.15,2013-07-23 19:35:00,
2013-07-23 12:45:00,90.2,62.6,29.69,NNW,333,5.0,8.0,40,0.00,,,0.00,Wunderground v.1.15,2013-07-23 19:45:00,
2013-07-23 12:50:00,89.5,61.3,29.69,WNW,283,4.0,4.0,39,0.00,,,0.00,Wunderground v.1.15,2013-07-23 19:50:00,
2013-07-23 12:55:00,89.4,61.9,29.69,WSW,243,5.0,9.0,40,0.00,,,0.00,Wunderground v.1.15,2013-07-23 19:55:00,
2013-07-23 13:05:00,89.6,61.4,29.68,South,184,7.0,7.0,39,0.00,,,0.00,Wunderground v.1.15,2013-07-23 20:05:00,
2013-07-23 13:10:00,89.9,61.6,29.68,WNW,290,6.0,6.0,39,0.00,,,0.00,Wunderground v.1.15,2013-07-23 20:10:00,
2013-07-23 13:20:00,89.7,62.2,29.68,West,271,6.0,6.0,40,0.00,,,0.00,Wunderground v.1.15,2013-07-23 20:20:00,
2013-07-23 13:35:00,89.8,61.5,29.67,WSW,249,7.0,12.0,39,0.00,,,0.00,Wunderground v.1.15,2013-07-23 20:35:00,
2013-07-23 13:45:00,90.2,62.6,29.67,West,277,6.0,8.0,40,0.00,,,0.00,Wunderground v.1.15,2013-07-23 20:45:00,
2013-07-23 13:55:00,90.1,62.5,29.66,SSE,147,8.0,15.0,40,0.00,,,0.00,Wunderground v.1.15,2013-07-23 20:55:00,
2013-07-23 14:05:00,90.2,61.9,29.66,WNW,295,8.0,8.0,39,0.00,,,0.00,Wunderground v.1.15,2013-07-23 21:05:00,
2013-07-23 14:10:00,90.3,62.0,29.66,WSW,256,7.0,7.0,39,0.00,,,0.00,Wunderground v.1.15,2013-07-23 21:10:00,
2013-07-23 14:15:00,91.4,63.0,29.66,NE,38,3.0,7.0,39,0.00,,,0.00,Wunderground v.1.15,2013-07-23 21:15:00,
2013-07-23 14:25:00,91.3,62.9,29.65,NW,323,4.0,8.0,39,0.00,,,0.00,Wunderground v.1.15,2013-07-23 21:25:00,
2013-07-23 14:30:00,90.7,61.6,29.65,West,263,6.0,7.0,38,0.00,,,0.00,Wunderground v.1.15,2013-07-23 21:30:00,
2013-07-23 14:35:00,90.7,61.6,29.65,SSW,208,7.0,7.0,38,0.00,,,0.00,Wunderground v.1.15,2013-07-23 21:35:00,
2013-07-23 14:40:00,90.6,60.8,29.65,West,276,8.0,8.0,37,0.00,,,0.00,Wunderground v.1.15,2013-07-23 21:40:00,
2013-07-23 14:50:00,90.0,60.2,29.65,SW,228,9.0,9.0,37,0.00,,,0.00,Wunderground v.1.15,2013-07-23 21:50:00,
2013-07-23 14:55:00,90.1,61.1,29.64,SW,236,9.0,9.0,38,0.00,,,0.00,Wunderground v.1.15,2013-07-23 21:55:00,
2013-07-23 15:15:00,90.6,60.8,29.64,SSW,204,7.0,8.0,37,0.00,,,0.00,Wunderground v.1.15,2013-07-23 22:15:00,
2013-07-23 15:20:00,91.0,60.3,29.64,WSW,246,5.0,5.0,36,0.00,,,0.00,Wunderground v.1.15,2013-07-23 22:20:00,
2013-07-23 15:30:00,91.7,61.0,29.63,WSW,240,5.0,8.0,36,0.00,,,0.00,Wunderground v.1.15,2013-07-23 22:30:00,
2013-07-23 15:40:00,90.9,61.0,29.63,South,185,7.0,7.0,37,0.00,,,0.00,Wunderground v.1.15,2013-07-23 22:40:00,
2013-07-23 15:45:00,92.1,61.3,29.63,NW,314,5.0,12.0,36,0.00,,,0.00,Wunderground v.1.15,2013-07-23 22:45:00,
2013-07-23 15:50:00,91.0,60.3,29.62,WNW,301,6.0,6.0,36,0.00,,,0.00,Wunderground v.1.15,2013-07-23 22:50:00,
2013-07-23 15:55:00,90.7,60.8,29.62,NW,319,7.0,7.0,37,0.00,,,0.00,Wunderground v.1.15,2013-07-23 22:55:00,
2013-07-23 16:00:00,90.7,60.8,29.62,WNW,301,5.0,5.0,37,0.00,,,0.00,Wunderground v.1.15,2013-07-23 23:00:00,
2013-07-23 16:10:00,90.7,60.8,29.62,NNW,344,8.0,8.0,37,0.00,,,0.00,Wunderground v.1.15,2013-07-23 23:10:00,
2013-07-23 16:15:00,90.8,60.9,29.62,NNW,335,8.0,8.0,37,0.00,,,0.00,Wunderground v.1.15,2013-07-23 23:15:00,
2013-07-23 16:25:00,91.1,60.4,29.61,South,187,7.0,9.0,36,0.00,,,0.00,Wunderground v.1.15,2013-07-23 23:25:00,
2013-07-23 16:35:00,91.1,59.6,29.61,NNW,339,5.0,6.0,35,0.00,,,0.00,Wunderground v.1.15,2013-07-23 23:35:00,
2013-07-23 16:40:00,91.1,60.4,29.61,West,280,4.0,5.0,36,0.00,,,0.00,Wunderground v.1.15,2013-07-23 23:40:00,
2013-07-23 16:45:00,91.2,59.7,29.61,North,352,4.0,7.0,35,0.00,,,0.00,Wunderground v.1.15,2013-07-23 23:45:00,
2013-07-23 16:50:00,91.1,59.6,29.61,WNW,295,5.0,5.0,35,0.00,,,0.00,Wunderground v.1.15,2013-07-23 23:50:00,
2013-07-23 17:00:00,91.3,60.6,29.60,NW,314,5.0,5.0,36,0.00,,,0.00,Wunderground v.1.15,2013-07-24 00:00:00,
2013-07-23 17:05:00,91.6,60.1,29.60,NW,326,5.0,10.0,35,0.00,,,0.00,Wunderground v.1.15,2013-07-24 00:05:00,
2013-07-23 17:15:00,90.8,60.2,29.60,NNW,335,7.0,7.0,36,0.00,,,0.00,Wunderground v.1.15,2013-07-24 00:15:00,
2013-07-23 17:20:00,90.9,59.5,29.60,West,281,5.0,5.0,35,0.00,,,0.00,Wunderground v.1.15,2013-07-24 00:20:00,
2013-07-23 17:30:00,90.9,60.3,29.60,WNW,282,6.0,6.0,36,0.00,,,0.00,Wunderground v.1.15,2013-07-24 00:30:00,
2013-07-23 17:35:00,90.7,60.1,29.60,NW,326,6.0,6.0,36,0.00,,,0.00,Wunderground v.1.15,2013-07-24 00:35:00,
2013-07-23 17:45:00,91.1,60.4,29.60,NW,304,3.0,5.0,36,0.00,,,0.00,Wunderground v.1.15,2013-07-24 00:45:00,
2013-07-23 17:55:00,91.1,60.4,29.60,West,266,4.0,7.0,36,0.00,,,0.00,Wunderground v.1.15,2013-07-24 00:55:00,
2013-07-23 18:00:00,90.6,60.0,29.60,NNW,328,4.0,4.0,36,0.00,,,0.00,Wunderground v.1.15,2013-07-24 01:00:00,
2013-07-23 18:05:00,90.5,60.7,29.59,NW,313,4.0,4.0,37,0.00,,,0.00,Wunderground v.1.15,2013-07-24 01:05:00,
2013-07-23 18:10:00,91.0,60.3,29.60,NW,323,2.0,2.0,36,0.00,,,0.00,Wunderground v.1.15,2013-07-24 01:10:00,
2013-07-23 18:20:00,90.4,60.6,29.60,WSW,242,3.0,3.0,37,0.00,,,0.00,Wunderground v.1.15,2013-07-24 01:20:00,
2013-07-23 18:25:00,89.9,60.9,29.61,SW,219,4.0,4.0,38,0.00,,,0.00,Wunderground v.1.15,2013-07-24 01:25:00,
2013-07-23 18:30:00,89.5,60.5,29.61,SW,231,4.0,4.0,38,0.00,,,0.00,Wunderground v.1.15,2013-07-24 01:30:00,
2013-07-23 18:35:00,89.1,60.2,29.61,WNW,289,4.0,4.0,38,0.00,,,0.00,Wunderground v.1.15,2013-07-24 01:35:00,
2013-07-23 18:45:00,88.7,60.6,29.61,NW,311,5.0,7.0,39,0.00,,,0.00,Wunderground v.1.15,2013-07-24 01:45:00,
2013-07-23 18:55:00,88.3,60.2,29.61,NNW,336,6.0,6.0,39,0.00,,,0.00,Wunderground v.1.15,2013-07-24 01:55:00,
2013-07-23 19:00:00,88.3,60.2,29.61,NW,317,6.0,6.0,39,0.00,,,0.00,Wunderground v.1.15,2013-07-24 02:00:00,
2013-07-23 20:05:00,86.7,60.2,29.62,NNE,30,3.0,4.0,41,0.00,,,0.00,Wunderground v.1.15,2013-07-24 03:05:00,
2013-07-23 20:15:00,86.6,60.1,29.62,NE,50,3.0,4.0,41,0.00,,,0.00,Wunderground v.1.15,2013-07-24 03:15:00,
2013-07-23 20:20:00,86.3,60.5,29.63,NE,40,2.0,3.0,42,0.00,,,0.00,Wunderground v.1.15,2013-07-24 03:20:00,
2013-07-23 20:25:00,86.4,60.6,29.63,NNE,32,3.0,4.0,42,0.00,,,0.00,Wunderground v.1.15,2013-07-24 03:25:00,
2013-07-23 20:30:00,86.4,59.9,29.63,NNE,22,4.0,4.0,41,0.00,,,0.00,Wunderground v.1.15,2013-07-24 03:30:00,
2013-07-23 20:40:00,86.2,60.4,29.63,NNW,342,2.0,2.0,42,0.00,,,0.00,Wunderground v.1.15,2013-07-24 03:40:00,
2013-07-23 20:45:00,86.0,60.2,29.63,NE,34,2.0,2.0,42,0.00,,,0.00,Wunderground v.1.15,2013-07-24 03:45:00,
2013-07-23 20:50:00,85.8,60.1,29.64,North,11,2.0,2.0,42,0.00,,,0.00,Wunderground v.1.15,2013-07-24 03:50:00,
2013-07-23 21:00:00,85.8,60.7,29.64,NNW,343,3.0,3.0,43,0.00,,,0.00,Wunderground v.1.15,2013-07-24 04:00:00,
2013-07-23 21:05:00,85.6,60.5,29.65,NNE,17,2.0,3.0,43,0.00,,,0.00,Wunderground v.1.15,2013-07-24 04:05:00,
2013-07-23 21:10:00,85.7,60.0,29.65,NNE,33,2.0,3.0,42,0.00,,,0.00,Wunderground v.1.15,2013-07-24 04:10:00,
2013-07-23 21:20:00,85.9,60.1,29.65,North,352,3.0,3.0,42,0.00,,,0.00,Wunderground v.1.15,2013-07-24 04:20:00,
2013-07-23 21:25:00,85.9,60.1,29.65,NNW,335,3.0,3.0,42,0.00,,,0.00,Wunderground v.1.15,2013-07-24 04:25:00,
2013-07-23 21:30:00,85.7,60.0,29.65,NNE,19,3.0,3.0,42,0.00,,,0.00,Wunderground v.1.15,2013-07-24 04:30:00,
2013-07-23 21:35:00,85.7,60.6,29.65,NE,39,3.0,4.0,43,0.00,,,0.00,Wunderground v.1.15,2013-07-24 04:35:00,
2013-07-23 21:45:00,85.6,60.5,29.65,North,354,3.0,4.0,43,0.00,,,0.00,Wunderground v.1.15,2013-07-24 04:45:00,
2013-07-23 21:50:00,85.4,60.4,29.65,NE,34,2.0,4.0,43,0.00,,,0.00,Wunderground v.1.15,2013-07-24 04:50:00,
2013-07-23 21:55:00,85.3,60.3,29.65,NNE,13,3.0,4.0,43,0.00,,,0.00,Wunderground v.1.15,2013-07-24 04:55:00,
2013-07-23 22:00:00,85.2,60.8,29.65,North,8,4.0,4.0,44,0.00,,,0.00,Wunderground v.1.15,2013-07-24 05:00:00,
2013-07-23 22:10:00,85.1,60.7,29.66,North,354,4.0,4.0,44,0.00,,,0.00,Wunderground v.1.15,2013-07-24 05:10:00,
2013-07-23 22:15:00,85.1,60.7,29.66,NNW,341,5.0,5.0,44,0.00,,,0.00,Wunderground v.1.15,2013-07-24 05:15:00,
2013-07-23 22:20:00,85.2,60.8,29.66,NNE,18,5.0,5.0,44,0.00,,,0.00,Wunderground v.1.15,2013-07-24 05:20:00,
2013-07-23 22:30:00,85.2,60.8,29.66,NNW,333,5.0,6.0,44,0.00,,,0.00,Wunderground v.1.15,2013-07-24 05:30:00,
2013-07-23 22:35:00,85.0,60.6,29.66,NNW,347,5.0,6.0,44,0.00,,,0.00,Wunderground v.1.15,2013-07-24 05:35:00,
2013-07-23 22:40:00,85.0,60.6,29.66,NNW,336,5.0,5.0,44,0.00,,,0.00,Wunderground v.1.15,2013-07-24 05:40:00,
2013-07-23 22:50:00,85.1,60.7,29.66,NNW,342,5.0,5.0,44,0.00,,,0.00,Wunderground v.1.15,2013-07-24 05:50:00,
2013-07-23 22:55:00,84.8,61.1,29.66,NNW,343,5.0,5.0,45,0.00,,,0.00,Wunderground v.1.15,2013-07-24 05:55:00,
2013-07-23 23:00:00,84.7,61.0,29.65,NNW,345,5.0,5.0,45,0.00,,,0.00,Wunderground v.1.15,2013-07-24 06:00:00,
2013-07-23 23:10:00,84.6,60.9,29.65,NNW,348,5.0,5.0,45,0.00,,,0.00,Wunderground v.1.15,2013-07-24 06:10:00,
2013-07-23 23:15:00,85.0,60.6,29.65,NNW,328,5.0,5.0,44,0.00,,,0.00,Wunderground v.1.15,2013-07-24 06:15:00,
2013-07-23 23:20:00,85.1,60.7,29.65,NNW,334,4.0,5.0,44,0.00,,,0.00,Wunderground v.1.15,2013-07-24 06:20:00,
2013-07-23 23:25:00,85.1,60.7,29.65,NNW,345,4.0,5.0,44,0.00,,,0.00,Wunderground v.1.15,2013-07-24 06:25:00,
2013-07-23 23:30:00,85.2,60.2,29.65,NNW,333,4.0,4.0,43,0.00,,,0.00,Wunderground v.1.15,2013-07-24 06:30:00,
2013-07-23 23:40:00,84.5,60.8,29.65,WNW,295,5.0,5.0,45,0.00,,,0.00,Wunderground v.1.15,2013-07-24 06:40:00,
2013-07-23 23:45:00,84.0,61.0,29.65,WNW,293,5.0,5.0,46,0.00,,,0.00,Wunderground v.1.15,2013-07-24 06:45:00,
2013-07-23 23:50:00,83.9,60.9,29.65,WNW,294,4.0,4.0,46,0.00,,,0.00,Wunderground v.1.15,2013-07-24 06:50:00,